Location: Waco, TX
(31.5480°N, 97.1670°W)
Time: 00:36:06
(UTC-06:00)

ISS - Pass Details

Date: 11 December 2017
Orbit: 403 x 407 km, 51.6° (Epoch: 12 December)

Event Time Altitude Azimuth Distance (km) Brightness Sun altitude
Rises 20:33:29 0° 314° (NW) 2,322 - -39.0°
Reaches altitude 10° 20:35:34 10° 313° (NW) 1,459 - -39.5°
Maximum altitude 20:38:50 80° 226° (SW) 413 - -40.2°
Drops below altitude 10° 20:42:05 10° 140° (SE) 1,449 - -40.9°
Sets 20:44:09 0° 139° (SE) 2,304 - -41.3°
